Starlink 11569

operational
NORAD ID: 62910 Int'l Des: 2025-027 Owner: SPXS Country: US Constellation: starlink
LEOCIRCULAR

Über Starlink 11569

Beschreibung wird geladen...

Live-Position

3D-Globus wird geladen...

Nächste Überflüge

Höhenverlauf

Altitude vs Time

uPlot chart will show altitude changes over time

Zweizeiliger Elementsatz

1 62910U 25027D 25353.70373178 .00193389 00000-0 14603-2 0 9997
2 62910 42.9997 109.6840 0002080 326.7640 33.3097 15.71091366 50577
Epoch: 19. Dez. 2025 • Age: 15 hours

Aktueller Status

Höhe 353.2 km
Geschwindigkeit 7.70 km/s
Subsatellitenpunkt 6.89°N, 98.76°W
Startdatum 8. Feb. 2025
Alter 0.8 years
Typ internet

Technische Details

Klassifizierung Payload
Masse 960.00 kg
Trockenmasse 910.00 kg
Gesamtmasse 960.00 kg
Länge 0.30 m
Durchmesser 4.10 m
Spannweite 29.00 m
Form Box + pan
Hersteller SPXS
Bus-Typ Starlink V2MD
Phasenstatus In Orbit
Besitzer/Staat SPXS/US

Große Konstellationen

Loading constellations...